Time,TemperatureF,DewpointF,PressureIn,WindDirection,WindDirectionDegrees,WindSpeedMPH,WindSpeedGustMPH,Humidity,HourlyPrecipIn,Conditions,Clouds,dailyrainin,SoftwareType,DateUTC
2013-05-28 00:13:00,43.7,36.0,30.16,NE,49,2.0,3.0,73,0.00,,,0.00,weatherlink.com 1.10,2013-05-28 04:13:00,
2013-05-28 00:28:00,43.6,35.0,30.16,NE,49,0.0,1.0,73,0.00,,,0.00,weatherlink.com 1.10,2013-05-28 04:28:00,
2013-05-28 00:43:00,43.7,35.0,30.16,NE,49,0.0,1.0,72,0.00,,,0.00,weatherlink.com 1.10,2013-05-28 04:43:00,
2013-05-28 00:58:00,43.4,35.0,30.16,NE,49,1.0,3.0,72,0.00,,,0.00,weatherlink.com 1.10,2013-05-28 04:58:00,
2013-05-28 01:13:00,43.2,35.0,30.16,NE,49,0.0,2.0,73,0.00,,,0.00,weatherlink.com 1.10,2013-05-28 05:13:00,
2013-05-28 01:28:00,43.4,34.0,30.16,NE,49,2.0,2.0,70,0.00,,,0.00,weatherlink.com 1.10,2013-05-28 05:28:00,
2013-05-28 01:43:00,43.1,35.0,30.15,NE,49,2.0,3.0,73,0.00,,,0.00,weatherlink.com 1.10,2013-05-28 05:43:00,
2013-05-28 01:58:00,43.6,35.0,30.16,NE,49,2.0,3.0,71,0.00,,,0.00,weatherlink.com 1.10,2013-05-28 05:58:00,
2013-05-28 02:13:00,44.0,35.0,30.16,NE,49,1.0,2.0,71,0.00,,,0.00,weatherlink.com 1.10,2013-05-28 06:13:00,
2013-05-28 02:29:00,44.5,34.0,30.15,NE,49,2.0,3.0,67,0.00,,,0.00,weatherlink.com 1.10,2013-05-28 06:29:00,
2013-05-28 02:44:00,44.2,34.0,30.15,NE,41,3.0,4.0,67,0.00,,,0.00,weatherlink.com 1.10,2013-05-28 06:44:00,
2013-05-28 02:59:00,44.1,34.0,30.15,NE,39,2.0,3.0,68,0.00,,,0.00,weatherlink.com 1.10,2013-05-28 06:59:00,
2013-05-28 03:14:00,44.4,34.0,30.14,NE,39,3.0,4.0,66,0.00,,,0.00,weatherlink.com 1.10,2013-05-28 07:14:00,
2013-05-28 03:29:00,45.3,34.0,30.14,NE,39,3.0,4.0,64,0.00,,,0.00,weatherlink.com 1.10,2013-05-28 07:29:00,
2013-05-28 03:44:00,45.4,33.0,30.14,NE,39,3.0,3.0,63,0.00,,,0.00,weatherlink.com 1.10,2013-05-28 07:44:00,
2013-05-28 03:59:00,44.5,36.0,30.14,ENE,67,1.0,2.0,72,0.00,,,0.00,weatherlink.com 1.10,2013-05-28 07:59:00,
2013-05-28 04:14:00,43.0,34.0,30.14,ENE,67,0.0,0.0,70,0.00,,,0.00,weatherlink.com 1.10,2013-05-28 08:14:00,
2013-05-28 04:29:00,42.1,34.0,30.14,ENE,67,0.0,0.0,72,0.00,,,0.00,weatherlink.com 1.10,2013-05-28 08:29:00,
2013-05-28 04:44:00,41.4,34.0,30.14,ENE,67,1.0,1.0,74,0.00,,,0.00,weatherlink.com 1.10,2013-05-28 08:44:00,
2013-05-28 04:59:00,41.9,32.0,30.14,ENE,67,0.0,0.0,69,0.00,,,0.00,weatherlink.com 1.10,2013-05-28 08:59:00,
2013-05-28 05:14:00,42.5,33.0,30.14,ENE,67,0.0,0.0,69,0.00,,,0.00,weatherlink.com 1.10,2013-05-28 09:14:00,
2013-05-28 05:29:00,42.8,33.0,30.14,ENE,67,0.0,0.0,69,0.00,,,0.00,weatherlink.com 1.10,2013-05-28 09:29:00,
2013-05-28 05:44:00,42.9,35.0,30.15,ENE,67,0.0,1.0,73,0.00,,,0.00,weatherlink.com 1.10,2013-05-28 09:44:00,
2013-05-28 05:59:00,42.8,34.0,30.14,ENE,67,0.0,0.0,70,0.00,,,0.00,weatherlink.com 1.10,2013-05-28 09:59:00,
2013-05-28 06:14:00,43.3,35.0,30.15,ENE,67,0.0,0.0,72,0.00,,,0.00,weatherlink.com 1.10,2013-05-28 10:14:00,
2013-05-28 06:29:00,44.3,35.0,30.15,ENE,67,0.0,0.0,71,0.00,,,0.00,weatherlink.com 1.10,2013-05-28 10:29:00,
2013-05-28 06:44:00,45.4,35.0,30.15,ENE,67,0.0,0.0,67,0.00,,,0.00,weatherlink.com 1.10,2013-05-28 10:44:00,
2013-05-28 06:59:00,46.5,38.0,30.15,ENE,67,0.0,0.0,71,0.00,,,0.00,weatherlink.com 1.10,2013-05-28 10:59:00,
2013-05-28 07:14:00,47.5,39.0,30.15,ENE,67,0.0,0.0,71,0.00,,,0.00,weatherlink.com 1.10,2013-05-28 11:14:00,
2013-05-28 07:29:00,48.5,41.0,30.14,ENE,67,0.0,0.0,74,0.00,,,0.00,weatherlink.com 1.10,2013-05-28 11:29:00,
2013-05-28 07:44:00,50.0,41.0,30.15,South,185,1.0,3.0,70,0.00,,,0.00,weatherlink.com 1.10,2013-05-28 11:44:00,
2013-05-28 07:59:00,53.2,40.0,30.14,SSW,194,2.0,3.0,62,0.00,,,0.00,weatherlink.com 1.10,2013-05-28 11:59:00,
2013-05-28 08:14:00,56.6,39.0,30.14,SW,217,1.0,4.0,53,0.00,,,0.00,weatherlink.com 1.10,2013-05-28 12:14:00,
2013-05-28 08:29:00,58.2,39.0,30.14,ESE,115,2.0,7.0,49,0.00,,,0.00,weatherlink.com 1.10,2013-05-28 12:29:00,
2013-05-28 08:44:00,59.1,39.0,30.14,South,188,3.0,7.0,47,0.00,,,0.00,weatherlink.com 1.10,2013-05-28 12:44:00,
2013-05-28 08:59:00,59.6,39.0,30.14,SSW,196,2.0,7.0,46,0.00,,,0.00,weatherlink.com 1.10,2013-05-28 12:59:00,
2013-05-28 09:14:00,60.2,38.0,30.14,SW,232,5.0,13.0,44,0.00,,,0.00,weatherlink.com 1.10,2013-05-28 13:14:00,
2013-05-28 09:29:00,60.6,38.0,30.14,SW,226,6.0,9.0,44,0.00,,,0.00,weatherlink.com 1.10,2013-05-28 13:29:00,
2013-05-28 09:45:00,60.4,39.0,30.14,South,191,3.0,9.0,45,0.00,,,0.00,weatherlink.com 1.10,2013-05-28 13:45:00,
2013-05-28 10:00:00,60.6,39.0,30.13,South,186,4.0,12.0,45,0.00,,,0.00,weatherlink.com 1.10,2013-05-28 14:00:00,
2013-05-28 10:15:00,60.2,39.0,30.13,South,173,13.0,14.0,46,0.00,,,0.00,weatherlink.com 1.10,2013-05-28 14:15:00,
2013-05-28 10:30:00,60.2,38.0,30.13,SSW,213,5.0,12.0,44,0.00,,,0.00,weatherlink.com 1.10,2013-05-28 14:30:00,
2013-05-28 10:45:00,60.3,38.0,30.13,South,184,3.0,10.0,44,0.00,,,0.00,weatherlink.com 1.10,2013-05-28 14:45:00,
2013-05-28 11:00:00,59.5,39.0,30.13,South,171,1.0,10.0,46,0.00,,,0.00,weatherlink.com 1.10,2013-05-28 15:00:00,
2013-05-28 11:15:00,59.8,39.0,30.13,SSW,202,3.0,9.0,46,0.00,,,0.00,weatherlink.com 1.10,2013-05-28 15:15:00,
2013-05-28 11:30:00,60.0,37.0,30.13,SSE,159,2.0,9.0,42,0.00,,,0.00,weatherlink.com 1.10,2013-05-28 15:30:00,
2013-05-28 11:45:00,60.3,36.0,30.12,SSW,211,4.0,13.0,41,0.00,,,0.00,weatherlink.com 1.10,2013-05-28 15:45:00,
2013-05-28 12:00:00,60.3,37.0,30.12,East,101,2.0,8.0,42,0.00,,,0.00,weatherlink.com 1.10,2013-05-28 16:00:00,
2013-05-28 12:15:00,59.4,37.0,30.12,South,171,4.0,11.0,43,0.00,,,0.00,weatherlink.com 1.10,2013-05-28 16:15:00,
2013-05-28 12:30:00,59.0,39.0,30.12,SSW,200,3.0,7.0,47,0.00,,,0.00,weatherlink.com 1.10,2013-05-28 16:30:00,
2013-05-28 12:45:00,58.7,38.0,30.11,SSW,194,4.0,8.0,47,0.00,,,0.00,weatherlink.com 1.10,2013-05-28 16:45:00,
2013-05-28 13:00:00,58.5,38.0,30.11,SSW,202,7.0,8.0,47,0.00,,,0.00,weatherlink.com 1.10,2013-05-28 17:00:00,
2013-05-28 13:15:00,58.4,39.0,30.11,SSW,203,0.0,7.0,48,0.00,,,0.00,weatherlink.com 1.10,2013-05-28 17:15:00,
2013-05-28 13:30:00,58.1,38.0,30.11,South,173,1.0,7.0,47,0.00,,,0.00,weatherlink.com 1.10,2013-05-28 17:30:00,
2013-05-28 13:45:00,57.6,39.0,30.11,SW,235,6.0,7.0,51,0.00,,,0.00,weatherlink.com 1.10,2013-05-28 17:45:00,
2013-05-28 14:00:00,56.9,40.0,30.11,SSE,153,6.0,9.0,53,0.00,,,0.00,weatherlink.com 1.10,2013-05-28 18:00:00,
2013-05-28 14:15:00,55.3,44.0,30.11,South,177,2.0,10.0,65,0.00,,,0.00,weatherlink.com 1.10,2013-05-28 18:15:00,
2013-05-28 14:30:00,54.3,45.0,30.12,SSE,162,2.0,7.0,71,0.00,,,0.00,weatherlink.com 1.10,2013-05-28 18:30:00,
2013-05-28 14:45:00,52.5,47.0,30.12,SSW,207,2.0,6.0,80,0.00,,,0.00,weatherlink.com 1.10,2013-05-28 18:45:00,
2013-05-28 15:00:00,51.2,47.0,30.12,South,169,3.0,4.0,86,0.01,,,0.01,weatherlink.com 1.10,2013-05-28 19:00:00,
2013-05-28 15:15:00,50.2,47.0,30.12,South,191,1.0,5.0,90,0.02,,,0.02,weatherlink.com 1.10,2013-05-28 19:15:00,
2013-05-28 15:30:00,50.1,48.0,30.11,SSW,196,2.0,4.0,92,0.03,,,0.03,weatherlink.com 1.10,2013-05-28 19:30:00,
2013-05-28 15:45:00,50.0,48.0,30.10,SSW,193,1.0,4.0,92,0.04,,,0.04,weatherlink.com 1.10,2013-05-28 19:45:00,
2013-05-28 16:00:00,51.0,49.0,30.09,SSW,200,2.0,5.0,94,0.03,,,0.04,weatherlink.com 1.10,2013-05-28 20:00:00,
2013-05-28 16:15:00,52.7,51.0,30.09,SSW,200,4.0,7.0,93,0.02,,,0.04,weatherlink.com 1.10,2013-05-28 20:15:00,
2013-05-28 16:30:00,53.2,51.0,30.09,South,185,2.0,7.0,93,0.01,,,0.04,weatherlink.com 1.10,2013-05-28 20:30:00,
2013-05-28 16:45:00,53.3,51.0,30.09,SSE,149,3.0,7.0,93,0.00,,,0.04,weatherlink.com 1.10,2013-05-28 20:45:00,
2013-05-28 17:00:00,53.2,51.0,30.09,South,178,2.0,6.0,93,0.00,,,0.04,weatherlink.com 1.10,2013-05-28 21:00:00,
2013-05-28 17:15:00,52.8,51.0,30.09,SSW,199,4.0,7.0,93,0.00,,,0.04,weatherlink.com 1.10,2013-05-28 21:15:00,
2013-05-28 17:30:00,52.3,51.0,30.09,SSW,201,6.0,8.0,94,0.00,,,0.04,weatherlink.com 1.10,2013-05-28 21:30:00,
2013-05-28 17:45:00,51.7,50.0,30.08,SSW,201,3.0,7.0,94,0.00,,,0.04,weatherlink.com 1.10,2013-05-28 21:45:00,
2013-05-28 18:00:00,51.3,50.0,30.08,South,183,2.0,6.0,95,0.00,,,0.04,weatherlink.com 1.10,2013-05-28 22:00:00,
2013-05-28 18:15:00,51.0,50.0,30.08,South,183,4.0,7.0,95,0.00,,,0.04,weatherlink.com 1.10,2013-05-28 22:15:00,
2013-05-28 18:30:00,50.8,50.0,30.08,SSW,194,5.0,6.0,96,0.00,,,0.04,weatherlink.com 1.10,2013-05-28 22:30:00,
2013-05-28 18:45:00,50.6,50.0,30.08,South,169,2.0,7.0,96,0.00,,,0.04,weatherlink.com 1.10,2013-05-28 22:45:00,
2013-05-28 19:00:00,50.6,50.0,30.08,South,187,3.0,6.0,96,0.00,,,0.04,weatherlink.com 1.10,2013-05-28 23:00:00,
2013-05-28 19:15:00,50.7,50.0,30.07,South,191,3.0,5.0,97,0.00,,,0.04,weatherlink.com 1.10,2013-05-28 23:15:00,
2013-05-28 19:30:00,50.9,50.0,30.07,South,181,1.0,7.0,97,0.00,,,0.04,weatherlink.com 1.10,2013-05-28 23:30:00,
2013-05-28 19:45:00,51.1,50.0,30.06,SSW,195,4.0,6.0,97,0.00,,,0.04,weatherlink.com 1.10,2013-05-28 23:45:00,
2013-05-28 20:00:00,51.3,51.0,30.06,SW,223,1.0,9.0,97,0.00,,,0.04,weatherlink.com 1.10,2013-05-29 00:00:00,
2013-05-28 20:15:00,51.3,51.0,30.05,SSW,201,2.0,9.0,97,0.00,,,0.04,weatherlink.com 1.10,2013-05-29 00:15:00,
2013-05-28 20:30:00,51.3,51.0,30.06,SSE,155,5.0,11.0,97,0.00,,,0.04,weatherlink.com 1.10,2013-05-29 00:30:00,
2013-05-28 20:45:00,51.3,51.0,30.06,SSW,201,6.0,8.0,97,0.00,,,0.04,weatherlink.com 1.10,2013-05-29 00:45:00,
2013-05-28 21:00:00,51.3,51.0,30.05,SSW,194,1.0,7.0,97,0.00,,,0.04,weatherlink.com 1.10,2013-05-29 01:00:00,
2013-05-28 21:15:00,51.4,51.0,30.06,South,170,2.0,6.0,98,0.00,,,0.04,weatherlink.com 1.10,2013-05-29 01:15:00,
2013-05-28 21:30:00,51.4,51.0,30.06,SSW,210,4.0,7.0,98,0.00,,,0.04,weatherlink.com 1.10,2013-05-29 01:30:00,
2013-05-28 21:46:00,51.4,51.0,30.07,SSE,157,1.0,5.0,98,0.00,,,0.04,weatherlink.com 1.10,2013-05-29 01:46:00,
2013-05-28 22:01:00,51.4,51.0,30.06,South,188,7.0,7.0,98,0.00,,,0.04,weatherlink.com 1.10,2013-05-29 02:01:00,
2013-05-28 22:16:00,51.4,51.0,30.06,South,171,1.0,6.0,98,0.00,,,0.04,weatherlink.com 1.10,2013-05-29 02:16:00,
2013-05-28 22:31:00,51.4,51.0,30.06,South,169,0.0,6.0,98,0.00,,,0.04,weatherlink.com 1.10,2013-05-29 02:31:00,
2013-05-28 22:46:00,51.5,51.0,30.06,South,190,1.0,4.0,98,0.00,,,0.04,weatherlink.com 1.10,2013-05-29 02:46:00,
2013-05-28 23:01:00,51.5,51.0,30.06,SSW,196,0.0,4.0,98,0.00,,,0.04,weatherlink.com 1.10,2013-05-29 03:01:00,
2013-05-28 23:16:00,51.5,51.0,30.05,SSE,152,3.0,5.0,98,0.00,,,0.04,weatherlink.com 1.10,2013-05-29 03:16:00,
2013-05-28 23:31:00,51.5,51.0,30.06,SSW,196,0.0,6.0,98,0.00,,,0.04,weatherlink.com 1.10,2013-05-29 03:31:00,
2013-05-28 23:46:00,51.5,51.0,30.06,SSW,196,0.0,2.0,98,0.01,,,0.05,weatherlink.com 1.10,2013-05-29 03:46:00,